TimeCST,TemperatureF,Dew PointF,Humidity,Sea Level PressureIn,VisibilityMPH,Wind Direction,Wind SpeedMPH,Gust SpeedMPH,PrecipitationIn,Events,Conditions,WindDirDegrees,DateUTC
12:15 AM,59.5,55.0,85,30.20,10.0,SSW,9.2,-,N/A,,Overcast,200,2013-12-01 06:15:00
12:35 AM,59.4,55.0,86,30.20,10.0,SSW,6.9,-,N/A,,Overcast,200,2013-12-01 06:35:00
12:55 AM,59.4,55.0,86,30.20,10.0,SSW,6.9,-,N/A,,Overcast,200,2013-12-01 06:55:00
1:15 AM,59.2,55.0,86,30.20,10.0,SSW,6.9,-,N/A,,Overcast,200,2013-12-01 07:15:00
1:35 AM,59.2,55.2,87,30.20,10.0,SSW,5.8,-,N/A,,Overcast,210,2013-12-01 07:35:00
1:55 AM,59.2,55.0,86,30.20,10.0,SSW,4.6,-,N/A,,Overcast,200,2013-12-01 07:55:00
2:15 AM,59.2,55.0,86,30.20,10.0,South,6.9,-,N/A,,Overcast,190,2013-12-01 08:15:00
2:35 AM,59.0,55.0,87,30.20,10.0,South,5.8,-,N/A,,Overcast,190,2013-12-01 08:35:00
2:55 AM,58.5,54.9,88,30.19,10.0,South,4.6,-,N/A,,Overcast,180,2013-12-01 08:55:00
3:15 AM,59.0,54.9,86,30.18,10.0,South,4.6,-,N/A,,Overcast,180,2013-12-01 09:15:00
3:35 AM,59.0,55.0,87,30.18,10.0,South,5.8,-,N/A,,Overcast,190,2013-12-01 09:35:00
3:55 AM,59.2,55.2,87,30.18,10.0,South,5.8,-,N/A,,Overcast,190,2013-12-01 09:55:00
4:15 AM,59.2,55.0,86,30.17,10.0,South,8.1,-,N/A,,Overcast,190,2013-12-01 10:15:00
4:35 AM,59.2,55.0,86,30.17,10.0,South,6.9,-,N/A,,Overcast,190,2013-12-01 10:35:00
4:55 AM,58.6,54.9,87,30.16,10.0,South,8.1,-,N/A,,Overcast,180,2013-12-01 10:55:00
5:15 AM,58.1,54.9,89,30.16,10.0,South,8.1,-,N/A,,Overcast,190,2013-12-01 11:15:00
5:35 AM,59.0,55.4,88,30.15,10.0,South,8.1,-,N/A,,Overcast,190,2013-12-01 11:35:00
5:55 AM,59.5,55.4,86,30.17,10.0,SSW,8.1,16.1,N/A,,Overcast,210,2013-12-01 11:55:00
6:15 AM,59.0,55.2,87,30.17,10.0,SSW,4.6,-,N/A,,Overcast,200,2013-12-01 12:15:00
6:35 AM,58.3,54.7,88,30.16,10.0,South,4.6,-,N/A,,Mostly Cloudy,180,2013-12-01 12:35:00
6:55 AM,57.2,54.7,91,30.16,10.0,South,3.5,-,N/A,,Scattered Clouds,190,2013-12-01 12:55:00
7:15 AM,56.3,54.0,92,30.16,10.0,South,4.6,-,N/A,,Clear,190,2013-12-01 13:15:00
7:35 AM,56.3,54.5,94,30.16,10.0,South,3.5,-,N/A,,Clear,180,2013-12-01 13:35:00
7:55 AM,57.0,55.2,94,30.18,10.0,SSW,4.6,-,N/A,,Clear,200,2013-12-01 13:55:00
8:15 AM,57.2,54.9,92,30.16,10.0,SSE,4.6,-,N/A,,Clear,160,2013-12-01 14:15:00
8:35 AM,58.1,55.2,90,30.17,10.0,South,4.6,-,N/A,,Clear,180,2013-12-01 14:35:00
8:55 AM,60.1,55.6,85,30.18,10.0,SSW,5.8,-,N/A,,Scattered Clouds,200,2013-12-01 14:55:00
9:15 AM,61.3,55.6,81,30.16,10.0,South,8.1,16.1,N/A,,Clear,190,2013-12-01 15:15:00
9:35 AM,62.6,55.9,79,30.18,10.0,SSW,6.9,-,N/A,,Scattered Clouds,200,2013-12-01 15:35:00
9:55 AM,64.2,56.5,76,30.18,10.0,SSW,4.6,-,N/A,,Mostly Cloudy,210,2013-12-01 15:55:00
10:15 AM,63.0,56.3,79,30.18,10.0,SW,5.8,-,N/A,,Overcast,220,2013-12-01 16:15:00
10:35 AM,63.5,56.7,78,30.18,10.0,SW,3.5,-,N/A,,Overcast,230,2013-12-01 16:35:00
10:55 AM,64.8,57.2,76,30.17,10.0,SW,5.8,-,N/A,,Overcast,220,2013-12-01 16:55:00
11:15 AM,65.8,57.4,74,30.16,10.0,SW,5.8,-,N/A,,Overcast,220,2013-12-01 17:15:00
11:35 AM,67.6,57.9,71,30.15,10.0,SW,6.9,-,N/A,,Overcast,230,2013-12-01 17:35:00
11:55 AM,68.2,57.4,68,30.15,10.0,SSW,10.4,-,N/A,,Overcast,210,2013-12-01 17:55:00
12:15 PM,68.0,57.6,69,30.13,10.0,SW,5.8,-,N/A,,Overcast,230,2013-12-01 18:15:00
12:35 PM,68.2,57.0,67,30.12,10.0,SW,11.5,-,N/A,,Overcast,220,2013-12-01 18:35:00
12:55 PM,69.3,56.5,64,30.11,10.0,SW,11.5,18.4,N/A,,Overcast,220,2013-12-01 18:55:00
1:15 PM,70.2,56.3,61,30.10,10.0,SW,13.8,19.6,N/A,,Overcast,220,2013-12-01 19:15:00
1:35 PM,69.8,56.5,63,30.08,10.0,SW,9.2,19.6,N/A,,Mostly Cloudy,220,2013-12-01 19:35:00
1:55 PM,69.8,56.3,62,30.07,10.0,SW,13.8,17.3,N/A,,Scattered Clouds,230,2013-12-01 19:55:00
2:15 PM,70.2,55.9,61,30.07,10.0,SW,13.8,21.9,N/A,,Overcast,220,2013-12-01 20:15:00
2:35 PM,70.0,56.3,62,30.05,10.0,SW,11.5,19.6,N/A,,Overcast,220,2013-12-01 20:35:00
2:55 PM,69.3,55.6,62,30.04,10.0,SSW,9.2,20.7,N/A,,Mostly Cloudy,210,2013-12-01 20:55:00
3:15 PM,69.4,56.1,62,30.04,10.0,SW,12.7,18.4,N/A,,Mostly Cloudy,230,2013-12-01 21:15:00
3:35 PM,69.1,56.3,64,30.03,10.0,SW,8.1,-,N/A,,Scattered Clouds,220,2013-12-01 21:35:00
3:55 PM,69.8,56.5,63,30.03,10.0,SSW,8.1,-,N/A,,Scattered Clouds,210,2013-12-01 21:55:00
4:15 PM,68.9,56.5,65,30.02,10.0,SSW,8.1,16.1,N/A,,Clear,210,2013-12-01 22:15:00
4:35 PM,68.2,56.7,67,30.02,10.0,SSW,10.4,-,N/A,,Scattered Clouds,210,2013-12-01 22:35:00
4:55 PM,67.8,57.2,69,30.02,10.0,SSW,9.2,-,N/A,,Scattered Clouds,200,2013-12-01 22:55:00
5:15 PM,67.1,57.0,70,30.01,10.0,SW,8.1,-,N/A,,Clear,220,2013-12-01 23:15:00
5:35 PM,66.2,56.8,72,30.02,10.0,SW,9.2,16.1,N/A,,Clear,230,2013-12-01 23:35:00
5:55 PM,65.5,56.8,74,30.01,10.0,SW,5.8,-,N/A,,Clear,220,2013-12-01 23:55:00
6:15 PM,65.3,57.2,75,30.01,10.0,SW,5.8,-,N/A,,Clear,230,2013-12-02 00:15:00
6:35 PM,64.9,57.2,76,30.01,10.0,SW,8.1,-,N/A,,Clear,230,2013-12-02 00:35:00
6:55 PM,64.9,57.2,76,30.00,10.0,SW,9.2,-,N/A,,Clear,220,2013-12-02 00:55:00
7:15 PM,64.8,57.2,76,30.01,10.0,SW,8.1,-,N/A,,Clear,230,2013-12-02 01:15:00
7:35 PM,64.4,57.2,77,30.00,10.0,SW,9.2,-,N/A,,Clear,230,2013-12-02 01:35:00
7:55 PM,64.4,57.2,77,29.99,10.0,SW,8.1,-,N/A,,Clear,220,2013-12-02 01:55:00
8:15 PM,64.0,56.8,77,29.98,10.0,SW,9.2,17.3,N/A,,Clear,230,2013-12-02 02:15:00
8:35 PM,63.7,57.2,79,30.00,10.0,WSW,9.2,-,N/A,,Clear,240,2013-12-02 02:35:00
8:55 PM,63.1,56.8,80,30.01,10.0,WSW,8.1,-,N/A,,Clear,250,2013-12-02 02:55:00
9:15 PM,63.0,56.7,80,30.01,10.0,WSW,8.1,-,N/A,,Clear,250,2013-12-02 03:15:00
9:35 PM,62.8,56.7,80,30.00,10.0,WSW,9.2,-,N/A,,Clear,240,2013-12-02 03:35:00
9:55 PM,62.6,56.5,80,29.99,10.0,WSW,10.4,-,N/A,,Clear,240,2013-12-02 03:55:00
10:15 PM,62.2,55.8,79,29.98,10.0,WSW,11.5,18.4,N/A,,Clear,240,2013-12-02 04:15:00
10:35 PM,61.9,55.6,80,29.97,10.0,WSW,11.5,-,N/A,,Clear,240,2013-12-02 04:35:00
10:55 PM,61.7,55.4,80,29.96,10.0,WSW,12.7,-,N/A,,Clear,240,2013-12-02 04:55:00
11:15 PM,62.4,55.0,77,29.97,10.0,WSW,11.5,-,N/A,,Clear,250,2013-12-02 05:15:00
11:35 PM,61.9,55.0,78,29.96,10.0,WSW,11.5,17.3,N/A,,Clear,250,2013-12-02 05:35:00
11:55 PM,61.7,54.9,78,29.95,10.0,WSW,10.4,-,N/A,,Clear,250,2013-12-02 05:55:00